Regional Weather Roundup
Issued by NWS

Home | Current Version | Previous Version | Text Only | Print | Product List | Glossary On
Versions: 1 2 3 4 5 6 7 8 9 10 11 12 13 14 15 16 17 18 19 20 21 22 23 24 25 26 27 28 29 30 31 32 33 34 35 36 37 38 39 40 41 42 43 44 45 46 47 48 49 50
000
ASUS45 KREV 260710
RWRNV
NEVADA REGIONAL WEATHER ROUNDUP
NATIONAL WEATHER SERVICE RENO NV
1200 AM PDT MON JUN 26 2017

NOTE: "FAIR" INDICATES FEW OR NO CLOUDS BELOW 12,000 FEET WITH NO
SIGNIFICANT WEATHER AND/OR OBSTRUCTIONS TO VISIBILITY.

NVZ001-003-004-260800-
WESTERN NEVADA

CITY           SKY/WX    TMP DP  RH WIND       PRES   REMARKS
RENO           PTCLDY    78  49  35 W10G20    30.12S
CARSON CITY    FAIR      70  46  43 E5        30.15F
MINDEN         FAIR      64  50  59 N3        30.16S
FALLON         CLEAR     80  43  26 W9        30.04R
LOVELOCK       CLEAR     79  43  27 CALM      30.03R
HAWTHORNE      CLEAR     81  45  28 CALM      30.06R
$$

NVZ002-CAZ072-073-260800-
NORTHERN AND CENTRAL SIERRA

CITY           SKY/WX    TMP DP  RH WIND       PRES   REMARKS
S. LAKE TAHOE  CLEAR     58  50  75 S3        30.28S
TRUCKEE        CLEAR     50  45  81 CALM      30.27S
SQUAW VLY 8000   N/A     54  45  71 SW7         N/A
SUSANVILLE     CLEAR     70  48  46 SW6       30.12R
MAMMOTH LAKES  FAIR      61  43  52 CALM      30.33R
BRIDGEPORT     FAIR      62  40  44 CALM      30.29F
$$

NVZ030-031-036-260800-
NORTHERN NEVADA

CITY           SKY/WX    TMP DP  RH WIND       PRES   REMARKS
ELKO           PTCLDY    68  35  29 NE6       30.12S
WINNEMUCCA     CLEAR     66  37  34 N5        30.06R
WENDOVER         N/A     74  31  20 W5        30.10S
$$

NVZ035-037-260800-
CENTRAL NEVADA

CITY           SKY/WX    TMP DP  RH WIND       PRES   REMARKS
ELY            CLEAR     59  28  30 SE9       30.24S
EUREKA           N/A     61  32  33 S6        30.19R
$$

NVZ013-014-260800-
SOUTH CENTRAL NEVADA

CITY           SKY/WX    TMP DP  RH WIND       PRES   REMARKS
TONOPAH        CLEAR     80  28  15 NW14      30.12R
$$

NVZ017-020-022-260800-
SOUTHERN NEVADA

CITY           SKY/WX    TMP DP  RH WIND       PRES   REMARKS
LAS VEGAS      CLEAR     98  19   6 SW7       29.86R
N. LAS VEGAS   CLEAR     99  22   6 CALM      29.85R
NELLIS AFB     CLEAR     96  26   8 S8        29.82R
HENDERSON      CLEAR     94  29  10 SW14      29.92R
MERCURY        CLEAR     91  25   9 W20       29.94F
$$



USA.gov is the U.S. government's official web portal to all federal, state and local government web resources and services.